Dewpoint
17 15 17 16 14 19 20 18 27 21 18 17 14 9 4 6 4 2 4 6 7 8 9 7 7 5 6 9 14 12 15 17 16 21 24 22 51 49 47 44 44 48 46 43 48 47 48 49 54 55 53 61 59 62 61 61 61 62 62 63 63 63 63 61 59 60 57 59 59 64 58 58 62 55 58 58 58 57 57 56 52 56 59 62 63 64
23 18 19 19 23 28 28 29 29 25 24 18 16 12 8 6 6 2 4 7 9 21 11 12 8 8 8 13 12 15 19 15 16 18 26 23 22 26 27 41 40 46 44 39 47 47 48 44 53 59 53 60 58 60 60 59 61 62 63 63 62 62 62 62 62 67 65 62 55 60 56 56 54 50 52 54 57 57 58 60 62 63 62 61 63 63
20 13 17 21 28 29 27 29 25 23 22 20 15 11 9 8 4 14 13 11 12 18 15 10 8 9 12 12 10 16 21 21 23 26 23 26 25 23 22 46 44 46 44 43 46 48 45 50 51 56 60 59 59 59 61 61 60 61 63 63 62 61 61 62 63 60 61 60 61 62 58 58 51 52 55 51 54 56 54 61 59 61 61 63 56 59
18 12 16 11 26 25 23 24 23 22 23 17 15 10 8 6 5 13 21 15 15 18 14 11 9 14 19 15 16 20 16 22 31 28 29 30 30 28 25 27 43 43 43 45 48 47 46 50 50 55 60 60 62 59 60 61 60 60 59 62 62 60 60 62 60 61 61 61 61 59 55 55 54 53 56 57 57 56 56 56 58 60 61 57 56 57
10 15 19 22 22 21 21 20 21 17 13 18 18 11 9 4 5 3 11 19 27 23 26 15 19 17 18 12 12 19 17 22 19 18 20 22 20 32 39 38 46 42 47 48 48 48 47 51 50 53 58 60 61 59 58 61 60 60 60 61 62 58 60 59 60 61 60 59 59 58 54 53 54 56 56 56 56 56 56 56 58 60 61 59 59 59
7 19 24 18 16 16 18 16 21 24 15 13 19 16 12 12 12 10 24 18 19 19 24 20 16 13 15 12 13 14 14 15 18 19 14 20 24 23 25 38 41 49 47 46 47 50 51 49 52 54 57 58 58 58 58 62 61 61 61 62 60 58 59 58 60 60 59 59 57 58 55 53 55 56 57 55 55 57 57 54 59 56 56 56 59 55
10 22 20 18 20 18 15 13 16 23 17 16 15 15 14 10 15 15 15 18 16 16 23 28 16 13 11 10 13 13 12 15 21 20 17 19 20 17 21 24 31 40 51 52 50 50 50 50 51 55 55 58 57 57 59 60 62 62 62 62 59 57 58 58 59 58 58 57 56 56 53 54 54 55 58 58 58 56 56 58 58 59 61 56 58 58
9 9 15 17 20 18 17 14 19 16 17 14 24 14 11 12 15 17 16 18 16 21 20 20 17 17 14 13 14 12 12 13 18 19 21 18 19 19 22 21 34 32 46 53 48 49 49 49 50 52 55 56 57 59 59 59 61 62 62 62 59 57 57 57 59 57 57 56 55 56 54 55 57 56 55 57 57 58 57 58 57 59 59 57 57 57
26 20 21 19 19 15 11 11 18 16 14 14 22 17 13 12 18 14 10 14 18 18 14 15 14 14 13 15 15 12 10 14 18 21 20 17 18 21 22 21 22 28 35 34 44 50 49 50 52 53 57 58 56 58 60 60 60 62 62 61 59 57 57 58 59 56 56 56 55 57 55 55 56 54 55 54 53 56 58 58 60 58 55 57 56 52
15 14 10 16 14 14 12 10 11 9 13 19 14 14 15 16 15 17 13 9 16 17 15 15 20 12 13 17 14 13 9 13 18 20 18 20 20 19 25 26 28 24 33 33 34 42 51 50 52 53 54 57 59 60 60 61 61 62 62 61 57 57 57 58 59 56 56 56 55 57 56 57 53 54 53 53 55 57 58 58 56 56 57 57 57 57
16 21 20 13 12 12 12 12 11 10 14 18 21 18 17 15 17 16 17 17 18 16 16 19 20 15 11 17 18 14 19 17 18 20 20 20 22 22 30 25 27 24 28 25 29 39 50 50 55 56 56 56 59 60 60 60 60 61 61 61 56 56 56 58 58 56 56 56 55 56 55 57 53 53 55 54 55 55 57 54 55 56 57 57 56 57
3 10 13 11 10 9 9 8 11 10 13 13 13 15 16 17 16 17 18 19 18 15 17 16 19 18 12 13 22 19 18 17 21 20 23 20 20 25 32 25 25 27 30 28 29 34 48 50 52 58 56 57 57 59 59 58 58 58 60 60 56 56 57 57 57 57 56 56 54 57 56 57 54 54 54 53 54 54 54 55 55 56 56 55 56 57
14 10 10 9 14 5 4 4 4 5 7 10 12 11 14 15 21 15 19 16 14 16 23 20 15 13 12 16 17 14 14 15 19 14 17 20 21 27 25 26 28 29 26 28 33 43 48 50 58 53 53 57 59 59 60 60 59 60 60 59 56 55 57 57 57 56 56 57 54 56 55 57 56 55 55 54 55 54 55 54 55 54 53 54 54 56
14 11 10 8 7 11 6 4 3 1 6 8 9 12 12 12 13 15 14 18 17 21 20 21 17 13 17 14 18 16 15 16 20 25 23 22 29 29 24 27 27 31 28 33 40 44 46 50 49 53 51 50 58 59 59 61 61 59 59 59 55 55 57 56 57 56 56 57 56 57 55 57 55 55 56 54 55 55 55 55 55 54 53 53 55 55
14 13 13 11 12 8 7 4 4 8 9 8 9 10 15 14 17 16 12 14 14 15 17 12 16 15 13 35 28 19 20 20 19 18 26 29 29 34 23 21 28 32 35 37 45 47 48 53 55 58 54 53 59 61 61 62 60 58 57 60 56 55 56 56 56 56 56 56 56 57 55 56 55 55 56 55 56 55 56 56 55 56 55 55 54 54
7 13 11 9 8 8 6 5 4 3 5 5 10 12 15 21 17 13 17 15 16 14 15 18 16 16 26 24 19 20 19 19 19 19 26 27 27 27 27 28 30 35 38 41 45 48 50 52 55 58 59 60 60 60 61 60 59 56 55 57 58 55 56 56 56 56 56 56 57 57 56 56 55 54 55 56 55 56 59 57 55 57 57 56 56 55
7 6 5 6 8 9 10 7 5 4 10 19 5 13 15 16 15 18 20 22 24 16 13 17 21 17 23 16 19 21 19 18 16 18 20 21 21 30 28 29 33 37 38 42 45 48 50 49 53 53 56 58 59 57 58 60 58 57 58 57 58 56 57 56 55 56 57 57 57 57 57 55 56 54 55 55 57 56 58 59 55 58 58 58 57 56
13 11 5 7 7 8 7 5 6 6 6 5 7 9 10 12 19 21 14 15 12 12 16 17 18 10 9 12 15 17 19 17 14 15 15 24 26 27 30 36 37 38 41 43 45 48 49 49 49 50 54 54 57 57 58 58 60 60 58 58 59 60 59 57 55 56 57 58 58 57 57 56 57 55 56 56 58 57 57 59 56 58 56 59 57 56
17 14 11 9 6 6 5 6 7 7 7 5 5 5 8 13 12 13 16 11 11 12 11 12 10 9 6 12 11 16 18 18 16 15 17 22 25 28 32 34 38 41 43 43 45 47 48 49 49 52 54 51 54 57 57 56 59 60 60 58 57 56 57 59 56 56 57 58 59 58 57 58 58 58 58 57 59 57 56 57 57 56 55 58 57 56
19 13 13 10 6 3 2 7 11 11 5 5 5 3 3 10 15 11 16 13 14 10 13 15 7 10 9 15 19 17 18 20 18 17 14 21 23 30 34 36 37 41 43 40 43 46 48 48 49 50 52 49 53 55 57 57 59 58 59 57 56 56 56 57 59 62 57 58 60 59 59 59 56 57 59 60 61 60 55 57 57 58 55 56 55 57
16 25 17 16 9 5 5 8 10 10 10 9 5 7 7 20 16 8 19 9 14 14 12 12 11 14 24 24 19 25 19 20 20 21 21 20 21 26 32 37 39 39 42 42 42 44 47 48 49 49 49 49 50 53 55 55 55 56 57 58 55 57 56 58 59 60 60 62 59 59 59 60 61 60 58 61 60 59 61 59 57 57 57 55 54 56
16 21 15 13 8 8 7 7 6 8 11 13 14 13 20 27 22 12 13 10 19 8 12 9 10 19 29 19 20 26 32 24 20 22 23 18 21 30 37 39 40 39 40 43 43 43 44 47 48 47 48 48 49 50 50 51 53 52 58 53 58 56 58 56 56 57 61 59 62 60 57 60 57 61 62 60 59 59 60 62 61 61 61 59 55 56
27 27 22 17 13 9 6 6 6 4 3 5 10 10 9 15 13 13 13 20 18 14 16 21 20 18 33 23 20 21 23 18 24 20 26 23 28 33 37 35 39 41 39 41 42 43 44 46 46 46 48 49 49 49 49 50 50 50 52 53 54 54 56 55 55 56 61 60 60 61 59 58 57 61 62 62 61 60 58 59 61 61 61 61 61 58
25 22 18 13 12 10 5 3 2 -0 2 5 7 9 7 10 13 14 11 14 12 15 10 11 14 23 32 33 27 25 22 20 25 26 27 28 34 35 34 36 36 38 41 40 42 43 43 43 45 44 45 45 47 49 49 48 47 47 48 49 50 53 53 54 57 57 56 58 60 59 59 59 60 61 61 61 62 61 60 61 61 61 60 60 60 60
20 21 15 10 9 8 8 4 -2 -3 -3 5 7 14 9 9 11 16 15 17 14 13 9 12 11 13 33 32 26 22 20 19 20 21 31 30 35 35 33 36 38 39 39 37 39 39 40 39 38 38 40 41 43 44 48 47 47 46 47 48 49 51 52 53 55 56 51 55 58 58 59 59 59 61 62 61 61 61 59 58 59 60 58 58 58 59
23 24 21 14 13 12 11 8 7 12 9 14 13 11 14 12 20 18 14 15 14 18 17 17 16 25 27 25 23 22 21 20 22 24 23 25 35 32 33 36 39 38 39 38 40 41 41 36 32 34 38 34 37 38 41 44 43 43 44 47 49 49 51 52 54 56 57 56 57 58 59 59 60 59 59 59 59 58 59 58 58 58 58 59 58 58
22 23 20 20 16 13 12 9 17 14 14 12 12 11 15 15 16 22 19 16 15 21 19 19 19 21 24 30 38 36 25 22 23 23 24 20 27 34 39 38 37 39 38 36 40 38 39 40 40 35 38 35 37 37 37 38 38 38 43 44 44 45 48 51 52 52 53 54 55 56 57 58 58 59 59 59 59 59 59 59 60 59 59 59 58 58
19 20 18 20 18 14 12 11 10 11 9 8 9 12 10 14 18 19 18 17 20 16 14 21 24 24 21 20 21 26 27 26 30 27 32 26 30 36 39 39 39 33 34 37 38 36 37 38 40 42 41 39 35 35 36 36 37 38 41 41 42 42 45 46 49 49 49 49 50 50 51 52 54 58 59 59 58 57 58 58 58 58 59 59 58 58
18 16 18 19 15 10 9 9 10 10 10 10 9 13 14 13 18 20 22 17 21 17 14 21 24 24 19 20 22 23 25 24 22 26 31 41 31 36 38 38 31 31 33 34 39 39 39 38 41 42 41 39 38 38 39 38 39 42 40 40 40 42 43 44 45 45 45 46 48 48 50 53 52 57 56 57 58 57 57 57 57 58 57 57 57 57
23 18 19 15 15 14 12 11 11 10 11 9 10 10 9 15 18 20 21 18 16 19 20 22 25 25 21 20 20 22 26 25 25 26 31 25 32 30 31 39 32 28 27 29 36 38 39 39 39 39 42 41 36 36 36 37 37 38 40 40 39 40 42 45 47 42 41 40 44 46 44 46 51 52 53 54 55 55 57 58 57 57 57 59 59 58
21 18 23 21 18 17 15 13 11 10 12 10 6 6 7 11 11 16 19 21 24 21 22 24 28 28 25 24 22 24 27 24 25 22 22 25 21 26 26 28 31 29 26 26 30 34 37 39 39 38 38 39 38 38 38 40 39 39 39 39 38 37 38 38 45 42 39 39 42 46 46 49 45 51 51 53 55 53 54 52 54 56 55 57 58 58
25 21 22 22 19 19 15 12 11 10 10 10 11 14 15 18 21 21 19 21 22 24 23 25 24 22 19 25 27 24 24 24 27 29 29 29 22 24 25 26 27 29 28 28 29 32 34 35 37 38 38 39 37 36 35 38 34 36 37 36 34 36 35 43 42 45 42 39 47 40 47 45 48 49 47 50 50 52 53 53 53 53 55 56 56 58
24 21 20 19 18 19 16 14 11 14 14 11 19 22 21 21 17 23 24 25 25 25 23 20 19 19 27 28 25 25 28 27 28 30 31 31 31 32 33 25 25 28 29 30 28 30 34 33 35 41 39 35 33 32 32 31 36 39 38 39 40 36 39 41 42 40 42 42 42 41 50 48 48 47 50 49 50 50 51 51 53 53 54 54 56 57
21 21 18 19 17 18 16 17 19 16 12 13 21 22 22 22 21 22 22 23 24 25 21 22 23 26 25 24 25 28 29 29 30 31 35 34 31 32 33 34 36 32 30 31 30 30 33 35 38 39 40 40 36 35 37 37 37 39 48 38 34 38 36 35 35 39 40 40 40 41 45 48 47 48 48 48 49 49 49 50 50 54 55 54 54 54
19 16 16 18 17 16 18 18 15 13 13 19 20 18 21 23 21 23 24 22 21 20 22 18 21 25 24 26 25 28 29 28 29 28 28 29 33 32 32 32 36 36 39 41 42 38 41 40 40 41 38 37 36 42 41 32 37 40 35 39 37 37 37 33 33 38 42 44 40 40 41 41 42 48 48 49 49 49 49 50 50 51 54 54 54 54
20 16 17 18 16 16 15 13 11 11 17 20 19 30 28 21 22 26 23 22 20 19 24 25 25 24 24 24 24 24 25 25 24 25 27 26 29 30 29 30 33 40 39 37 42 41 39 36 38 39 39 39 34 30 28 34 36 35 36 36 37 38 38 36 39 34 43 44 46 43 42 43 46 49 48 48 48 48 48 49 50 51 54 53 53 53
19 17 18 16 21 15 16 15 15 17 17 18 25 29 28 28 29 27 24 25 28 24 25 24 23 23 26 26 27 26 26 25 26 25 29 25 27 26 28 28 34 37 37 40 37 38 44 40 35 36 39 37 34 33 37 35 37 41 37 33 32 34 34 42 40 33 44 43 37 41 44 45 47 48 48 47 47 47 48 49 50 51 52 52 53 52
17 20 21 17 18 16 13 12 13 12 12 22 27 29 29 30 31 30 26 23 27 25 25 25 24 23 24 24 25 27 28 24 23 27 27 28 28 28 26 27 29 32 33 35 36 40 40 44 35 34 36 38 35 35 33 32 37 36 36 36 33 32 33 31 34 33 34 37 44 45 45 43 40 46 47 46 45 46 47 48 49 49 51 51 51 51
16 18 21 17 17 17 17 15 14 13 17 27 26 27 27 25 27 28 24 15 27 26 24 23 23 24 24 24 24 26 25 22 22 27 27 28 27 27 26 24 23 25 33 37 32 35 33 43 37 31 32 34 31 30 36 33 36 34 35 36 34 33 32 35 33 37 36 42 41 40 41 45 46 47 47 46 47 49 48 49 49 48 51 52 51 51
17 18 18 15 18 16 15 14 14 18 19 27 28 26 24 24 26 24 17 16 25 25 24 24 23 24 24 24 25 25 24 23 25 27 28 28 27 27 27 27 28 28 25 26 29 41 31 32 30 41 38 32 33 36 35 33 33 36 36 35 35 36 35 35 36 33 38 41 43 40 41 47 48 46 43 43 49 49 49 49 49 48 47 50 50 49
18 19 16 15 15 18 21 15 15 18 29 28 25 25 24 28 24 17 14 21 25 25 24 24 23 24 25 24 25 24 25 25 26 28 29 27 26 27 28 29 28 27 26 26 27 34 26 26 28 27 30 31 34 35 36 34 35 35 34 36 37 36 37 38 38 37 37 40 39 35 33 32 40 46 45 47 49 50 49 49 49 49 48 48 49 49
21 22 20 20 16 15 15 14 14 18 29 26 23 22 23 23 16 15 20 24 24 22 23 22 23 23 23 24 24 24 25 25 26 27 26 26 27 27 27 27 27 27 27 28 31 31 29 27 30 29 28 29 30 30 33 33 34 35 34 35 36 36 36 36 35 38 37 36 34 35 35 37 39 44 49 49 49 49 49 49 47 46 47 45 47 50
18 20 17 17 19 18 17 14 13 12 27 26 23 17 22 19 19 20 21 21 21 21 20 20 20 21 21 20 22 24 24 24 25 25 26 26 26 26 26 26 28 26 27 29 29 27 28 27 28 28 30 30 29 30 29 30 30 31 35 34 36 36 35 35 36 34 35 35 35 36 37 41 43 44 46 46 46 45 47 48 47 47 46 48 50 49
18 15 14 14 16 12 13 14 16 23 23 25 20 16 16 18 19 20 19 17 18 18 17 16 17 18 19 19 21 21 23 23 24 25 25 25 25 26 26 26 26 26 26 26 25 25 27 25 27 29 29 29 29 29 30 30 30 30 31 34 35 36 37 37 37 36 36 37 36 36 35 33 36 39 42 43 43 42 45 46 47 47 48 50 49 48
13 13 15 12 17 18 15 15 19 19 18 16 20 17 18 19 19 18 17 17 15 15 17 15 16 19 20 20 20 21 20 22 22 23 23 24 23 23 22 22 23 24 25 26 24 27 27 25 26 26 26 27 29 29 29 29 30 31 32 33 34 33 34 36 36 38 38 37 36 38 36 37 37 37 38 41 42 41 42 45 48 48 48 49 48 48
16 17 18 15 13 16 15 16 19 15 15 14 13 16 15 17 16 17 16 15 17 20 21 19 19 18 18 18 16 16 17 18 19 19 19 21 21 21 23 20 20 21 20 22 24 24 24 24 26 25 27 27 26 27 30 30 28 29 30 31 33 33 35 36 37 37 36 34 35 35 32 36 36 37 39 41 40 42 45 46 47 48 48 48 48 47
19 17 15 13 15 13 11 13 12 14 15 15 13 14 16 17 16 21 24 23 22 22 22 23 22 22 22 21 18 18 18 16 16 18 18 17 18 19 19 19 20 20 21 19 19 24 24 23 22 23 24 26 27 28 29 29 30 30 31 32 33 33 33 32 33 34 36 35 34 36 35 36 36 37 39 41 44 44 45 45 47 47 46 46 46 46
14 16 13 13 13 13 14 13 14 14 14 14 14 15 15 18 20 22 24 25 23 24 24 24 23 22 21 20 21 22 21 21 21 21 21 23 23 19 16 17 19 19 19 20 21 22 20 20 20 22 23 26 28 29 28 28 27 27 29 29 29 29 28 30 31 32 32 33 30 29 30 31 31 36 38 38 43 44 45 45 46 47 46 45 45 45
13 17 12 13 10 10 11 11 13 19 18 16 16 19 20 21 24 25 25 25 25 24 23 24 25 25 26 28 27 26 26 27 27 27 25 24 24 23 23 24 23 21 19 20 22 23 23 25 27 26 27 29 27 29 30 30 31 29 31 31 31 32 32 32 32 33 32 32 33 33 33 34 33 34 37 42 44 40 39 43 46 46 46 46 44 44
14 12 12 14 12 12 10 14 20 17 18 19 20 22 22 24 25 25 24 24 24 25 27 28 29 28 29 29 30 29 28 29 30 31 28 26 26 27 27 26 25 25 25 24 26 27 26 27 29 30 30 30 31 31 31 32 32 32 30 30 30 29 30 31 32 33 32 30 32 34 33 34 33 33 37 44 42 38 36 33 34 38 41 39 35 35
13 17 17 14 14 14 18 19 22 24 23 23 24 24 25 26 26 25 27 28 28 29 28 29 28 28 28 28 28 28 28 28 28 29 30 28 29 31 31 30 28 29 28 28 29 31 30 31 33 33 32 32 34 35 35 33 32 33 33 32 30 30 33 31 30 30 30 32 32 33 35 35 35 35 40 43 41 39 37 34 33 33 33 34 35 35